Baku, Azerbaijan

2:52 PM +04 on May 23, 2018 (GMT +0400)
Bina

Weather History for UBBB - February, 2018

Change the Weather History Date:

Friday, February 2, 2018

  Actual Average (WUND) Record (WUND)
Temperature  
Mean Temperature 37 °F -  
Max Temperature 46 °F - - (-1)
Min Temperature 28 °F - - (-1)
Degree Days  
Heating Degree Days 28    
Moisture  
Dew Point 31 °F    
Average Humidity 82    
Maximum Humidity 100    
Minimum Humidity 37    
Precipitation  
Precipitation 0.00 in - - ()
Sea Level Pressure  
Sea Level Pressure 30.35 in    
Wind  
Wind Speed 2 mph ()    
Max Wind Speed 10 mph    
Max Gust Speed -    
Visibility 4.7 miles    
Events Fog    
Averages and records for this station are not official NWS values.
T = Trace of Precipitation, MM = Missing Value Source: Averaged Metar Reports

Daily Weather History Graph

Daily Weather History Graph

Search for Another Location

Airport or City:

Astronomy

Feb. 02, 2018 Rise Set
Actual Time 7:48 AM +04 5:58 PM +04
Civil Twilight 7:19 AM +04 6:27 PM +04
Nautical Twilight 6:47 AM +04 7:00 PM +04
Astronomical Twilight 6:15 AM +04 7:32 PM +04
Moon 8:17 PM +04 (2/2) 9:01 AM +04 (2/2)
Length of Visible Light 11h 07m
Length of Day
10h 10m
Waning Gibbous, 96% of the Moon is Illuminated
Feb 2
Waning Gibbous
Feb 7
Last Quarter
Feb 16
New
Feb 23
First Quarter
Mar 2
Full

Hourly Weather History & Observations

Time (+04) Temp. Windchill Dew Point Humidity Pressure Visibility Wind Dir Wind Speed Gust Speed Precip Events Conditions
12:00 AM 30.2 °F - 28.4 °F 93% 30.36 in 4.3 mi Calm Calm - N/A   Unknown
12:30 AM 28.4 °F - 26.6 °F 93% 30.36 in 3.7 mi Calm Calm - N/A   Unknown
1:00 AM 31 °F - 29 °F 91% 30.36 in 6 mi Calm Calm - -  
1:00 AM 28.4 °F - 28.4 °F 100% 30.36 in 0.9 mi Calm Calm - N/A   Mist
1:30 AM 28.4 °F - 28.4 °F 100% 30.36 in 0.2 mi Calm Calm - N/A Fog Light Freezing Fog
2:00 AM 28.4 °F - 28.4 °F 100% 30.36 in 1.3 mi Calm Calm - N/A Fog Mist
2:30 AM 24.8 °F - 24.8 °F 100% 30.36 in 0.2 mi North 2.3 mph - N/A Fog Light Freezing Fog
3:00 AM 26.6 °F - 26.6 °F 100% 30.36 in - NNE 2.3 mph - N/A Fog Light Freezing Fog
3:30 AM 26.6 °F 22.6 °F 26.6 °F 100% 30.36 in 0.9 mi WNW 3.5 mph - N/A   Overcast
4:00 AM 29 °F - 27 °F 91% 30.35 in 6 mi Calm Calm - -   Overcast
4:00 AM 30.2 °F - 28.4 °F 93% 30.33 in - NNW 2.3 mph - N/A   Overcast
4:30 AM 28.4 °F - 28.4 °F 100% 30.33 in - Calm Calm - N/A   Scattered Clouds
5:00 AM 28.4 °F - 28.4 °F 100% 30.33 in - NW 1.2 mph - N/A   Mostly Cloudy
5:30 AM 30.2 °F - 30.2 °F 100% 30.33 in - Calm Calm - N/A   Mostly Cloudy
6:00 AM 32.0 °F - 30.2 °F 93% 30.33 in 3.7 mi SSE 2.3 mph - N/A   Mostly Cloudy
6:30 AM 30.2 °F - 28.4 °F 93% 30.33 in 4.3 mi North 2.3 mph - N/A   Unknown
7:00 AM 31 °F - 29 °F 89% 30.35 in 6 mi Calm Calm - -   Overcast
7:00 AM 28.4 °F 24.6 °F 28.4 °F 100% 30.33 in 3.7 mi SSW 3.5 mph - N/A   Unknown
7:30 AM 26.6 °F - 26.6 °F 100% 30.36 in 3.7 mi SE 1.2 mph - N/A   Unknown
8:00 AM 26.6 °F - 26.6 °F 100% 30.36 in 5.0 mi Calm Calm - N/A   Unknown
8:30 AM 28.4 °F - 28.4 °F 100% 30.36 in 5.0 mi Calm Calm - N/A   Unknown
9:00 AM 30.2 °F - 28.4 °F 93% 30.36 in 5.0 mi NW 2.3 mph - N/A   Unknown
9:30 AM 33.8 °F - 33.8 °F 100% 30.39 in 5.0 mi WSW 2.3 mph - N/A   Unknown
10:00 AM 38 °F - 35 °F 83% 30.39 in 6 mi WSW 4.5 mph - -  
10:00 AM 39.2 °F - 37.4 °F 93% 30.39 in - Calm Calm - N/A   Clear
10:30 AM 41.0 °F 38.0 °F 32.0 °F 70% 30.39 in - WNW 4.6 mph - N/A   Clear
11:00 AM 42.8 °F 40.1 °F 30.2 °F 61% 30.39 in - NW 4.6 mph - N/A   Clear
11:30 AM 44.6 °F 42.2 °F 30.2 °F 57% 30.39 in - NW 4.6 mph - N/A   Clear
12:00 PM 44.6 °F 42.2 °F 30.2 °F 57% 30.36 in - WNW 4.6 mph - N/A   Clear
12:30 PM 46.4 °F - 30.2 °F 53% 30.36 in - North 2.3 mph - N/A   Clear
1:00 PM 47 °F - 29 °F 37% 30.36 in 6 mi West 4.5 mph - -  
1:00 PM 48.2 °F - 30.2 °F 50% 30.36 in - North 3.5 mph - N/A   Clear
1:30 PM 50.0 °F - 30.2 °F 47% 30.33 in - Variable 2.3 mph - N/A   Clear
2:00 PM 48.2 °F - 32.0 °F 54% 30.33 in - NNE 6.9 mph - N/A   Clear
2:30 PM 48.2 °F - 30.2 °F 50% 30.33 in - NNE 8.1 mph - N/A   Clear
3:00 PM 48.2 °F - 30.2 °F 50% 30.33 in - NNE 8.1 mph - N/A   Clear
3:30 PM 46.4 °F 41.5 °F 32.0 °F 57% 30.33 in - NE 10.4 mph - N/A   Clear
4:00 PM 44 °F - 33 °F 54% 30.34 in 6 mi NNE 8.9 mph - -  
4:00 PM 44.6 °F 39.7 °F 32.0 °F 61% 30.33 in - NE 9.2 mph - N/A   Clear
4:30 PM 44.6 °F 39.7 °F 33.8 °F 66% 30.33 in - ENE 9.2 mph - N/A   Clear
5:00 PM 44.6 °F 39.7 °F 35.6 °F 71% 30.33 in - ENE 9.2 mph - N/A   Clear
5:30 PM 42.8 °F 37.0 °F 33.8 °F 70% 30.33 in - ENE 10.4 mph - N/A   Clear
6:00 PM 41.0 °F 36.4 °F 33.8 °F 76% 30.33 in - East 6.9 mph - N/A   Clear
6:30 PM 41.0 °F 36.4 °F 35.6 °F 81% 30.33 in - East 6.9 mph - N/A   Clear
7:00 PM 39 °F - 35 °F 78% 30.35 in 6 mi Calm Calm - -  
7:00 PM 39.2 °F - 33.8 °F 81% 30.36 in - SE 2.3 mph - N/A   Clear
7:30 PM 37.4 °F 34.9 °F 33.8 °F 87% 30.36 in - ESE 3.5 mph - N/A   Clear
8:00 PM 35.6 °F - 33.8 °F 93% 30.36 in 6.2 mi Calm Calm - N/A   Scattered Clouds
8:30 PM 37.4 °F - 33.8 °F 87% 30.33 in 6.2 mi Calm Calm - N/A   Mostly Cloudy
9:00 PM 35.6 °F - 33.8 °F 93% 30.36 in 6.2 mi Calm Calm - N/A   Mostly Cloudy
9:30 PM 37.4 °F - 35.6 °F 93% 30.33 in 6.2 mi Variable 1.2 mph - N/A   Mostly Cloudy
10:00 PM 37 °F - 34 °F 86% 30.35 in 6 mi Calm Calm - -  
10:00 PM 37.4 °F - 35.6 °F 93% 30.33 in 6.2 mi Variable 1.2 mph - N/A   Mostly Cloudy
10:30 PM 37.4 °F - 35.6 °F 93% 30.33 in 6.2 mi Calm Calm - N/A   Scattered Clouds
11:00 PM 37.4 °F - 35.6 °F 93% 30.33 in 6.2 mi Calm Calm - N/A   Scattered Clouds
11:30 PM 37.4 °F - 35.6 °F 93% 30.33 in 6.2 mi Calm Calm - N/A   Scattered Clouds